EWG7KG LKPR-EDDL

Flight info

Callsign EWG7KG
Flight time N/A
Altitude 32000
Route BALTU6H/12 BALTU DCT DONAD DCT RAPET T843 VELIS DCT AMETU T852 TINSA T854 DOMUX DOMUX1A
Aircraft A320/M-SDE3FGHIRWY/LB1

Departure

Time 2026-05-05 17:38
Airport Václav Havel Airport Prague (LKPR)

Arrival

Time N/A
Airport Düsseldorf Airport (EDDL)
Time Latitude Longitude Altitude Speed Heading
2026-05-05 17:38 50.13464 14.63728 13026 ft 323 kts
2026-05-05 17:38 50.15702 14.63395 13716 ft 325 kts 345°
2026-05-05 17:38 50.17828 14.62205 14340 ft 326 kts 333°
2026-05-05 17:39 50.19896 14.60704 14988 ft 329 kts 333°
2026-05-05 17:39 50.21985 14.59193 15623 ft 332 kts 333°
2026-05-05 17:39 50.24094 14.57672 15918 ft 335 kts 333°
2026-05-05 17:39 50.26067 14.55789 16008 ft 331 kts 315°
2026-05-05 17:40 50.27506 14.53042 16001 ft 326 kts 295°
2026-05-05 17:40 50.28220 14.49718 16345 ft 323 kts 275°
2026-05-05 17:40 50.28260 14.46217 16990 ft 323 kts 265°
2026-05-05 17:40 50.28154 14.42708 17640 ft 325 kts 264°
2026-05-05 17:41 50.28035 14.39168 18248 ft 328 kts 264°
2026-05-05 17:41 50.27905 14.35594 18782 ft 330 kts 264°
2026-05-05 17:41 50.27772 14.31995 19343 ft 333 kts 264°
2026-05-05 17:41 50.27639 14.28376 19910 ft 335 kts 264°
2026-05-05 17:42 50.27507 14.24735 20468 ft 337 kts 264°
2026-05-05 17:42 50.27375 14.21070 21002 ft 339 kts 264°
2026-05-05 17:42 50.27242 14.17386 21541 ft 341 kts 263°
2026-05-05 17:42 50.27108 14.13674 22077 ft 343 kts 263°
2026-05-05 17:43 50.26973 14.09938 22610 ft 345 kts 263°
2026-05-05 17:43 50.26833 14.06184 23140 ft 348 kts 263°
2026-05-05 17:43 50.26690 14.02394 23615 ft 350 kts 263°
2026-05-05 17:43 50.26547 13.98637 24055 ft 352 kts 263°
2026-05-05 17:44 50.26399 13.94813 24498 ft 354 kts 263°
2026-05-05 17:44 50.26247 13.90961 24953 ft 356 kts 263°
2026-05-05 17:44 50.26092 13.87082 25373 ft 359 kts 263°
2026-05-05 17:44 50.25935 13.83187 25810 ft 361 kts 263°
2026-05-05 17:45 50.25777 13.79264 26254 ft 363 kts 263°
2026-05-05 17:45 50.25619 13.75315 26684 ft 365 kts 263°
2026-05-05 17:45 50.25462 13.71350 27122 ft 367 kts 263°
2026-05-05 17:45 50.25301 13.67361 27554 ft 369 kts 263°
2026-05-05 17:46 50.25135 13.63347 27983 ft 371 kts 263°
2026-05-05 17:46 50.24968 13.59317 28398 ft 373 kts 263°
2026-05-05 17:46 50.24799 13.55261 28805 ft 375 kts 263°
2026-05-05 17:46 50.24629 13.51181 29199 ft 377 kts 263°
2026-05-05 17:47 50.24454 13.47079 29586 ft 379 kts 263°
2026-05-05 17:47 50.24277 13.42958 29942 ft 381 kts 263°
2026-05-05 17:47 50.24099 13.38814 30265 ft 383 kts 263°
2026-05-05 17:47 50.23918 13.34652 30575 ft 385 kts 263°
2026-05-05 17:48 50.23734 13.30479 30916 ft 385 kts 263°